| time (UTC) | temp C | wind direction | speed KPH | gust KPH | rain 1hr cm | rain 24hr cm | rain mn cm | humidity % | barometer mb |
| 20260505213334 | 25 | 320 | 11.3 | 35.4 | 0.00 | 0.00 | 0.00 | 40 | 1003.8 |
| 20260505211833 | 25 | 192 | 16.1 | 24.1 | 0.00 | 0.00 | 0.00 | 39 | 1003.6 |
| 20260505210329 | 25 | 313 | 11.3 | 33.8 | 0.00 | 0.00 | 0.00 | 39 | 1003.6 |
| 20260505204827 | 25 | 239 | 19.3 | 32.2 | 0.00 | 0.00 | 0.00 | 38 | 1003.6 |
| 20260505203327 | 26 | 272 | 11.3 | 35.4 | 0.00 | 0.00 | 0.00 | 38 | 1003.4 |
| 20260505201824 | 26 | 270 | 14.5 | 32.2 | 0.00 | 0.00 | 0.00 | 38 | 1003.4 |
| 20260505200402 | 26 | 184 | 12.9 | 30.6 | 0.00 | 0.00 | 0.00 | 38 | 1003.8 |
| 20260505194840 | 25 | 258 | 12.9 | 32.2 | 0.00 | 0.00 | 0.00 | 39 | 1003.9 |
| 20260505193335 | 25 | 196 | 9.7 | 32.2 | 0.00 | 0.00 | 0.00 | 38 | 1003.9 |
| 20260505191859 | 26 | 172 | 12.9 | 49.9 | 0.00 | 0.00 | 0.00 | 37 | 1004.2 |
| 20260505190334 | 25 | 278 | 29.0 | 56.3 | 0.00 | 0.00 | 0.00 | 37 | 1004.3 |
| 20260505184833 | 25 | 198 | 27.4 | 37.0 | 0.00 | 0.00 | 0.00 | 37 | 1004.6 |
| 20260505183328 | 25 | 239 | 12.9 | 41.8 | 0.00 | 0.00 | 0.00 | 39 | 1005.0 |
| 20260505181833 | 25 | 232 | 17.7 | 40.2 | 0.00 | 0.00 | 0.00 | 39 | 1005.2 |
| 20260505180331 | 25 | 235 | 19.3 | 48.3 | 0.00 | 0.00 | 0.00 | 37 | 1005.6 |
| 20260505174831 | 26 | 167 | 12.9 | 33.8 | 0.00 | 0.00 | 0.00 | 39 | 1005.7 |
| 20260505173328 | 26 | 242 | 16.1 | 35.4 | 0.00 | 0.00 | 0.00 | 40 | 1005.8 |
| 20260505171850 | 25 | 167 | 14.5 | 35.4 | 0.00 | 0.00 | 0.00 | 43 | 1005.9 |
| 20260505170331 | 25 | 260 | 11.3 | 24.1 | 0.00 | 0.00 | 0.00 | 44 | 1006.1 |
| 20260505164832 | 24 | 272 | 8.0 | 27.4 | 0.00 | 0.00 | 0.00 | 45 | 1006.3 |
| 20260505163328 | 23 | 207 | 11.3 | 32.2 | 0.00 | 0.00 | 0.00 | 46 | 1006.7 |
| 20260505161830 | 22 | 190 | 19.3 | 33.8 | 0.00 | 0.00 | 0.00 | 46 | 1007.2 |
| 20260505160329 | 22 | 257 | 12.9 | 24.1 | 0.00 | 0.00 | 0.00 | 47 | 1007.5 |
| 20260505153327 | 21 | 198 | 22.5 | 35.4 | 0.00 | 0.00 | 0.00 | 48 | 1007.9 |
| 20260505151827 | 21 | 215 | 8.0 | 19.3 | 0.00 | 0.00 | 0.00 | 49 | 1008.2 |
| 20260505150346 | 20 | 240 | 8.0 | 27.4 | 0.00 | 0.00 | 0.00 | 50 | 1008.1 |
| 20260505140323 | 18 | 257 | 12.9 | 20.9 | 0.00 | 0.00 | 0.00 | 53 | 1008.2 |
| 20260505124822 | 15 | 223 | 3.2 | 14.5 | 0.00 | 0.00 | 0.00 | 60 | 1008.6 |
| 20260505123345 | 15 | 222 | 8.0 | 12.9 | 0.00 | 0.00 | 0.00 | 60 | 1008.7 |
| 20260505121824 | 14 | 183 | 4.8 | 9.7 | 0.00 | 0.00 | 0.00 | 60 | 1008.7 |
| 20260505120322 | 14 | 226 | 9.7 | 12.9 | 0.00 | 0.00 | 0.00 | 59 | 1008.4 |
| 20260505114843 | 14 | 215 | 3.2 | 8.0 | 0.00 | 0.00 | 0.00 | 59 | 1008.0 |
| 20260505113340 | 13 | 211 | 4.8 | 8.0 | 0.00 | 0.00 | 0.00 | 61 | 1008.4 |
| 20260505111822 | 13 | 176 | 3.2 | 6.4 | 0.00 | 0.00 | 0.00 | 62 | 1008.5 |
| 20260505110340 | 12 | 112 | 0.0 | 4.8 | 0.00 | 0.00 | 0.00 | 65 | 1008.4 |
| 20260505101839 | 11 | 187 | 1.6 | 4.8 | 0.00 | 0.00 | 0.00 | 67 | 1008.5 |
| 20260505100341 | 11 | 31 | 1.6 | 4.8 | 0.00 | 0.00 | 0.00 | 66 | 1008.4 |
| 20260505094842 | 11 | 267 | 1.6 | 4.8 | 0.00 | 0.00 | 0.00 | 66 | 1008.5 |
| 20260505093338 | 11 | 216 | 1.6 | 6.4 | 0.00 | 0.00 | 0.00 | 67 | 1008.5 |
| 20260505091838 | 11 | 153 | 1.6 | 3.2 | 0.00 | 0.00 | 0.00 | 67 | 1008.6 |
| 20260505090356 | 11 | 238 | 0.0 | 3.2 | 0.00 | 0.00 | 0.00 | 67 | 1008.5 |
| 20260505084839 | 11 | 355 | 0.0 | 3.2 | 0.00 | 0.00 | 0.00 | 66 | 1008.6 |
| 20260505083337 | 12 | 279 | 1.6 | 4.8 | 0.00 | 0.00 | 0.00 | 64 | 1008.6 |
| 20260505081837 | 12 | 255 | 4.8 | 8.0 | 0.00 | 0.00 | 0.00 | 64 | 1008.7 |
| 20260505080336 | 12 | 218 | 4.8 | 11.3 | 0.00 | 0.00 | 0.00 | 63 | 1009.0 |
| 20260505074840 | 12 | 215 | 6.4 | 12.9 | 0.00 | 0.00 | 0.00 | 64 | 1009.0 |
| 20260505073337 | 12 | 232 | 1.6 | 6.4 | 0.00 | 0.00 | 0.00 | 64 | 1008.9 |
| 20260505071837 | 12 | 204 | 1.6 | 4.8 | 0.00 | 0.00 | 0.00 | 63 | 1009.1 |
| 20260505070334 | 12 | 223 | 3.2 | 6.4 | 0.00 | 0.00 | 0.00 | 62 | 1009.0 |
| 20260505064838 | 12 | 256 | 4.8 | 8.0 | 0.00 | 0.00 | 0.00 | 62 | 1009.0 |
| 20260505063356 | 12 | 284 | 3.2 | 9.7 | 0.00 | 0.00 | 0.00 | 61 | 1009.1 |
| 20260505061835 | 12 | 218 | 6.4 | 14.5 | 0.00 | 0.00 | 0.00 | 60 | 1009.1 |
| 20260505060332 | 12 | 234 | 8.0 | 19.3 | 0.00 | 0.00 | 0.00 | 60 | 1009.1 |
| 20260505054832 | 13 | 221 | 12.9 | 24.1 | 0.00 | 0.00 | 0.00 | 58 | 1009.1 |
| 20260505053333 | 13 | 240 | 12.9 | 22.5 | 0.00 | 0.00 | 0.00 | 58 | 1009.0 |
| 20260505051833 | 13 | 232 | 8.0 | 12.9 | 0.00 | 0.00 | 0.00 | 57 | 1008.8 |
| 20260505050330 | 13 | 226 | 4.8 | 14.5 | 0.00 | 0.00 | 0.00 | 56 | 1008.9 |
| 20260505040327 | 14 | 221 | 1.6 | 3.2 | 0.00 | 0.00 | 0.00 | 50 | 1008.5 |
| 20260505034849 | 15 | 221 | 3.2 | 9.7 | 0.00 | 0.00 | 0.00 | 49 | 1008.4 |
| 20260505033325 | 15 | 284 | 4.8 | 9.7 | 0.00 | 0.00 | 0.00 | 48 | 1008.2 |
| 20260505031830 | 15 | 193 | 1.6 | 12.9 | 0.00 | 0.00 | 0.00 | 48 | 1008.1 |
| 20260505030327 | 15 | 181 | 4.8 | 8.0 | 0.00 | 0.00 | 0.00 | 49 | 1008.1 |
| 20260505024826 | 14 | 88 | 3.2 | 6.4 | 0.00 | 0.00 | 0.00 | 49 | 1008.2 |
| 20260505023323 | 15 | 119 | 1.6 | 4.8 | 0.00 | 0.00 | 0.00 | 48 | 1008.2 |
| 20260505021842 | 15 | 176 | 0.0 | 1.6 | 0.00 | 0.00 | 0.00 | 47 | 1008.1 |
| 20260505020323 | 16 | 176 | 0.0 | 1.6 | 0.00 | 0.00 | 0.00 | 45 | 1008.1 |
| 20260505014822 | 16 | 217 | 0.0 | 3.2 | 0.00 | 0.00 | 0.00 | 44 | 1008.0 |
| 20260505013340 | 16 | 155 | 1.6 | 9.7 | 0.00 | 0.00 | 0.00 | 44 | 1008.0 |
| 20260505011840 | 16 | 173 | 3.2 | 8.0 | 0.00 | 0.00 | 0.00 | 43 | 1007.8 |
| 20260505010321 | 16 | 207 | 4.8 | 8.0 | 0.00 | 0.00 | 0.00 | 43 | 1007.7 |
| 20260505004843 | 16 | 218 | 3.2 | 11.3 | 0.00 | 0.00 | 0.00 | 42 | 1007.4 |
| 20260505003339 | 16 | 227 | 8.0 | 11.3 | 0.00 | 0.00 | 0.00 | 42 | 1007.2 |
| 20260505001839 | 17 | 196 | 1.6 | 9.7 | 0.00 | 0.00 | 0.00 | 42 | 1006.9 |
| 20260505000334 | 17 | 234 | 6.4 | 9.7 | 0.00 | 0.00 | 0.00 | 42 | 1006.7 |
| 20260504234839 | 17 | 215 | 8.0 | 12.9 | 0.00 | 0.00 | 0.00 | 42 | 1006.6 |
| 20260504233336 | 17 | 223 | 3.2 | 8.0 | 0.00 | 0.00 | 0.00 | 42 | 1006.4 |
| 20260504231835 | 17 | 229 | 11.3 | 17.7 | 0.00 | 0.00 | 0.00 | 41 | 1006.3 |
| 20260504230331 | 18 | 245 | 11.3 | 20.9 | 0.00 | 0.00 | 0.00 | 40 | 1006.2 |
| 20260504224835 | 18 | 248 | 16.1 | 25.7 | 0.00 | 0.00 | 0.00 | 40 | 1006.1 |
| 20260504223332 | 18 | 217 | 14.5 | 30.6 | 0.00 | 0.00 | 0.00 | 39 | 1005.8 |
| 20260504221832 | 18 | 233 | 17.7 | 30.6 | 0.00 | 0.00 | 0.00 | 39 | 1005.6 |
| 20260504220328 | 19 | 254 | 12.9 | 27.4 | 0.00 | 0.00 | 0.00 | 39 | 1005.8 |
| 20260504214825 | 18 | 242 | 16.1 | 30.6 | 0.00 | 0.00 | 0.00 | 39 | 1005.8 |